Home   Weather   Sydney   Past weeks

Flag for Australia Past Weather in Sydney, New South Wales, Australia — Yesterday and Last 2 Weeks

Now
54 °F

Passing clouds.


Feels Like: 49 °F
Forecast: 52 / 63 °F
Wind: 18 mph from West

Location: Sydney Airport

Current Time: Apr 27, 2017 at 6:08:34 am

Latest Report: Apr 27, 2017 at 5:30 am


Visibility: N/A

Pressure: 29.89 "Hg

Humidity: 58%

Dew Point: 39 °F

Location of SydneyLocation

Past Weather in Sydney — Graph

°F

Sydney Temperature Yesterday

Maximum temperature yesterday: 77 °F (at 12:00 pm)
Minimum temperature yesterday: 57 °F (at 3:48 pm)
Average temperature yesterday: 66 °F

High & Low Weather Summary for the Past Weeks

 TemperatureHumidityPressure
High81 °F (Apr 25, 12:30 pm)100% (Apr 12, 5:30 pm)30.42 "Hg (Apr 12, 5:30 pm)
Low54 °F (Apr 27, 4:30 am)32% (Apr 26, 12:00 pm)29.59 "Hg (Apr 26, 12:30 pm)
Average67 °F74%30.15 "Hg
* Reported Apr 12 5:00 am — Apr 27 5:00 am, Sydney, Weather by CustomWeather, © 2017

Note: Actual official high and low records may vary slightly from our data, if they occured in-between our weather recording intervals... More about our weather records

Advertising

Sydney Weather History for the Previous 24 Hours

Scroll right to see more
 ConditionsComfort  
Time TempWeatherWind HumidityBarometerVisibility
5:00 am
Thu, Apr 27
54 °FPassing clouds.16 mph58%29.89 "HgN/A
4:30 am54 °FPassing clouds.16 mph63%29.89 "HgN/A
4:00 am55 °FPassing clouds.17 mph59%29.86 "HgN/A
3:00 am55 °FClear.17 mph63%29.86 "Hg10 mi
2:00 am59 °FPassing clouds.16 mph59%29.86 "HgN/A
1:30 am59 °FPartly cloudy.14 mph63%29.86 "HgN/A
1:00 am59 °FPartly cloudy.15 mph63%29.86 "HgN/A
12:30 am59 °FPartly cloudy.16 mph63%29.86 "HgN/A
12:00 am59 °FClear.15 mph63%29.86 "Hg10 mi
11:30 pm
Wed, Apr 26
59 °FClear.14 mph63%29.83 "Hg10 mi
11:00 pm59 °FClear.15 mph63%29.83 "Hg10 mi
10:00 pm59 °FClear.15 mph63%29.83 "Hg10 mi
9:30 pm59 °FPassing clouds.17 mph63%29.83 "HgN/A
9:00 pm59 °FPassing clouds.17 mph63%29.80 "HgN/A
8:30 pm59 °FClear.20 mph63%29.77 "Hg10 mi
7:30 pm59 °FClear.16 mph59%29.77 "Hg10 mi
7:00 pm61 °FClear.18 mph55%29.74 "Hg10 mi
6:30 pm61 °FClear.15 mph59%29.74 "Hg10 mi
6:00 pm61 °FPassing clouds.13 mph63%29.71 "HgN/A
5:30 pm63 °FPartly cloudy.12 mph64%29.68 "HgN/A
5:00 pm59 °FBroken clouds.16 mph68%29.65 "HgN/A
4:30 pm59 °FBroken clouds.17 mph72%29.68 "HgN/A
4:00 pm59 °FScattered showers. Broken clouds.22 mph72%29.68 "HgN/A
3:48 pm57 °FSprinkles. Partly sunny.21 mph82%29.68 "HgN/A
3:30 pm61 °FSprinkles. Broken clouds.29 mph63%29.68 "HgN/A
3:00 pm64 °FScattered showers. Broken clouds.32 mph56%29.65 "HgN/A
2:42 pm68 °FScattered showers. Clear.18 mph43%29.62 "HgN/A
2:30 pm72 °FScattered showers. Broken clouds.20 mph41%29.59 "HgN/A
2:00 pm72 °FScattered showers. Broken clouds.23 mph41%29.59 "HgN/A
1:45 pm73 °FSunny.17 mph38%29.59 "Hg10 mi
1:30 pm73 °FSunny.14 mph41%29.59 "Hg10 mi
1:15 pm73 °FSprinkles. Clear.22 mph41%29.59 "HgN/A
12:30 pm77 °FPassing clouds.22 mph32%29.59 "HgN/A
12:00 pm77 °FPassing clouds.23 mph32%29.62 "HgN/A
11:30 am75 °FPassing clouds.21 mph36%29.65 "HgN/A
11:00 am75 °FPassing clouds.22 mph39%29.65 "HgN/A
10:00 am73 °FPassing clouds.17 mph47%29.68 "HgN/A
9:30 am73 °FPassing clouds.22 mph47%29.71 "HgN/A
9:00 am72 °FPassing clouds.17 mph50%29.71 "HgN/A
8:30 am72 °FPassing clouds.12 mph50%29.71 "HgN/A
8:00 am70 °FPassing clouds.10 mph57%29.71 "HgN/A
7:30 am68 °FPassing clouds.12 mph64%29.71 "HgN/A
7:00 am66 °FPassing clouds.15 mph73%29.71 "HgN/A
6:30 am64 °FSunny.9 mph78%29.71 "Hg10 mi
Weather by CustomWeather, © 2017

See weather overviewHow to use our weather pages